This demonstration page uses our WeatherBlox Daily Observations layout. Learn more.

Left ArrowRight Arrow

44.8408, -93.29828

Hourly Observations for April 11, 2019

Temp ( °F °C ) Dew Point ( °F °C ) Humidity (%) Winds ( mph kmh ) Pressure ( in mb ) Visibility ( mi km ) Precip ( " mm )
12:53 am 00:53 Windy with Snow Likely 32 0 28 -2.2 85 85 ENE 28 44 29.96 1015 3 5 0.01 0.25
1:46 am 01:46 Cloudy 31 -0.6 27 -2.8 85 85 ENE 20 31 29.99 1015 7 11 0.00 0.03
1:53 am 01:53 Windy with Snow Likely 31 -0.6 27 -2.8 85 85 ENE 21 33 29.97 1015 3 5 0.00 0.03
2:10 am 02:10 Windy with Snow Likely 31 -0.6 27 -2.8 85 85 ENE 21 33 29.99 1015 2 3 0.00 0.03
2:19 am 02:19 Windy with Snow Likely 31 -0.6 27 -2.8 85 85 ENE 22 35 29.98 1015 1 2 0.01 0.25
2:34 am 02:34 Mostly Cloudy with Light Snow 30 -1.1 27 -2.8 88 88 ENE 23 37 29.98 1015 1 1 0.01 0.25
2:53 am 02:53 Cloudy with Snow 30 -1.1 27 -2.8 88 88 ENE 21 33 29.96 1014 1 1 0.02 0.51
3:53 am 03:53 Mostly Cloudy with Heavy Snow 28 -2.2 26 -3.3 92 92 ENE 21 33 29.94 1014 0 0 0.04 1.02
4:23 am 04:23 Mostly Cloudy with Snow 27 -2.8 25 -3.9 92 92 ENE 28 44 29.92 1013 1 1 0.02 0.51
4:53 am 04:53 Mostly Cloudy with Snow 27 -2.8 24 -4.4 89 89 E 25 41 29.88 1012 1 1 0.02 0.51
5:20 am 05:20 Mostly Cloudy with Light Snow 27 -2.8 24 -4.4 89 89 ENE 22 35 29.91 1013 1 1 0.02 0.51
5:29 am 05:29 Windy with Snow Likely 27 -2.8 24 -4.4 89 89 ENE 21 33 29.90 1012 1 2 0.03 0.76
5:41 am 05:41 Windy with Snow Likely 27 -2.8 24 -4.4 89 89 ENE 23 37 29.90 1012 2 3 0.03 0.76
5:49 am 05:49 Windy with Snow Likely 28 -2 25 -4 86 86 ENE 25 41 29.89 1012 2 3 0.03 0.76
5:50 am 05:50 Windy with Snow Likely 28 -2.2 24 -4.4 85 85 ENE 23 37 29.87 1012 2 3 0.03 0.76
6:38 am 06:38 Windy with Snow Likely 28 -2.2 24 -4.4 85 85 ENE 23 37 29.84 1011 5 8 0.00 0.03
6:53 am 06:53 Cloudy with Blowing Snow 28 -2.2 24 -4.4 85 85 ENE 26 43 29.80 1009 7 11 0.00 0.03
7:32 am 07:32 Cloudy 30 -1.1 24 -4.4 79 79 E 25 41 29.88 1012 10 16 0.00 0.00
7:41 am 07:41 Windy with Snow Likely 30 -1.1 24 -4.4 79 79 ENE 30 48 29.83 1010 6 10 0.00 0.03
7:46 am 07:46 Cloudy with Blowing Snow 30 -1.1 24 -4.4 79 79 E 30 48 29.86 1011 4 6 0.00 0.03
7:50 am 07:50 Cloudy with Blowing Snow 30 -1 25 -4 80 80 ENE 29 46 29.84 1010 1 1 0.00 0.03
7:53 am 07:53 Cloudy with Blowing Snow 30 -1.1 25 -3.9 82 82 E 23 37 29.84 1010 1 1 0.00 0.03
7:59 am 07:59 Cloudy with Blowing Snow 30 -1.1 25 -3.9 82 82 E 28 44 29.84 1010 2 2 0.01 0.25
8:14 am 08:14 Windy with Snow Likely 30 -1.1 25 -3.9 82 82 E 24 39 29.82 1010 2 2 0.01 0.25
8:38 am 08:38 Cloudy with Blowing Snow 30 -1.1 25 -3.9 82 82 ENE 30 48 29.80 1009 2 2 0.01 0.25
8:50 am 08:50 Cloudy with Blowing Snow 28 -2 25 -4 86 86 ENE 28 44 29.76 1008 1 2 0.01 0.25
8:53 am 08:53 Cloudy with Blowing Snow 29 -1.7 25 -3.9 85 85 E 32 52 29.74 1007 1 1 0.01 0.25
9:07 am 09:07 Cloudy with Blowing Snow 29 -1.7 25 -3.9 85 85 ENE 28 44 29.81 1010 2 2 0.01 0.25
9:15 am 09:15 Cloudy with Blowing Snow 29 -1.7 24 -4.4 82 82 ENE 28 44 29.78 1009 3 5 0.01 0.25
9:29 am 09:29 Cloudy with Blowing Snow 29 -1.7 25 -3.9 85 85 ENE 26 43 29.81 1010 4 6 0.01 0.25
9:53 am 09:53 Cloudy with Blowing Snow 30 -1.1 25 -3.9 82 82 ENE 30 48 29.72 1007 4 6 0.01 0.25
10:53 am 10:53 Cloudy with Blowing Snow 30 -1.1 25 -3.9 82 82 E 30 48 29.69 1005 5 8 0.00 0.00
11:53 am 11:53 Cloudy 31 -0.6 25 -3.9 79 79 E 30 48 29.67 1005 10 16 0.00 0.00
12:49 pm 12:49 Cloudy 32 0 25 -4 75 75 ENE 30 48 29.64 1004 9 14 0.00 0.03
12:53 pm 12:53 Cloudy 32 0 25 -3.9 75 75 E 26 43 29.63 1004 10 16 0.00 0.03
1:09 pm 13:09 Cloudy 32 0 25 -3.9 75 75 E 35 56 29.63 1004 9 14 0.00 0.03
1:19 pm 13:19 Windy with Snow Likely 32 0 25 -3.9 75 75 E 35 56 29.61 1003 8 13 0.00 0.03
1:53 pm 13:53 Cloudy 32 0 26 -3.3 79 79 E 28 44 29.59 1002 10 16 0.00 0.03
2:07 pm 14:07 Cloudy 33 0.6 26 -3.3 75 75 E 32 52 29.60 1002 10 16 0.00 0.03
2:22 pm 14:22 Cloudy 33 0.6 26 -3.3 75 75 E 29 46 29.61 1003 10 16 0.00 0.03
2:45 pm 14:45 Cloudy 33 0.6 27 -2.8 78 78 E 25 41 29.58 1002 7 11 0.00 0.03
2:53 pm 14:53 Cloudy 33 0.6 27 -2.8 78 78 E 26 43 29.57 1001 10 16 0.01 0.25
3:12 pm 15:12 Cloudy 33 0.6 27 -2.8 78 78 E 29 46 29.59 1002 7 11 0.01 0.25
3:22 pm 15:22 Cloudy 33 0.6 27 -2.8 78 78 E 24 39 29.57 1001 2 3 0.02 0.51
3:25 pm 15:25 Cloudy 33 0.6 27 -2.8 78 78 E 23 37 29.57 1001 1 2 0.02 0.51
3:27 pm 15:27 Cloudy 33 0.6 28 -2.2 82 82 E 23 37 29.57 1001 2 2 0.04 1.02
3:38 pm 15:38 Cloudy 33 0.6 28 -2.2 82 82 E 23 37 29.57 1001 6 10 0.05 1.27
3:53 pm 15:53 Cloudy 33 0.6 28 -2.2 82 82 E 26 43 29.53 1000 8 13 0.05 1.27
4:05 pm 16:05 Cloudy with Light Rain/Snow 33 0.6 28 -2.2 82 82 E 28 44 29.54 1000 5 8 0.00 0.03
4:15 pm 16:15 Cloudy 33 0.6 28 -2.2 82 82 ENE 29 46 29.50 999 9 14 0.00 0.03
4:25 pm 16:25 Cloudy with Light Rain/Snow 33 0.6 28 -2.2 82 82 E 29 46 29.46 998 6 10 0.00 0.03
4:46 pm 16:46 Cloudy 34 1.1 28 -2.2 79 79 E 20 31 29.53 1000 10 16 0.00 0.03
4:53 pm 16:53 Cloudy 34 1.1 28 -2.2 79 79 E 14 22 29.50 999 10 16 0.00 0.03
5:53 pm 17:53 Cloudy 35 1.7 29 -1.7 78 78 E 16 26 29.55 1001 10 16 0.00 0.00
6:53 pm 18:53 Cloudy 36 2.2 29 -1.7 76 76 E 20 31 29.55 1001 10 16 0.00 0.00
7:53 pm 19:53 Cloudy 35 1.7 29 -1.7 78 78 E 20 31 29.52 1000 10 16 0.00 0.03
8:44 pm 20:44 Cloudy with Light Rain 35 1.7 29 -1.7 78 78 E 21 33 29.54 1000 4 6 0.03 0.76
8:53 pm 20:53 Cloudy with Light Rain 35 1.7 29 -1.7 78 78 E 20 31 29.53 1000 5 8 0.03 0.76
8:57 pm 20:57 Cloudy with Mist and Fog 34 1.1 30 -1.1 85 85 E 17 28 29.54 1000 4 6 0.01 0.25
9:02 pm 21:02 Cloudy with Mist and Fog 34 1.1 30 -1.1 85 85 E 16 26 29.54 1000 3 4 0.01 0.25
9:04 pm 21:04 Cloudy with Light Snow 34 1.1 30 -1.1 85 85 E 18 30 29.54 1000 3 4 0.02 0.51
9:08 pm 21:08 Cloudy with Light Snow 34 1.1 30 -1.1 85 85 E 18 30 29.54 1000 4 6 0.02 0.51
9:23 pm 21:23 Cloudy 35 1.7 30 -1.1 82 82 E 15 24 29.53 1000 7 11 0.03 0.76
9:31 pm 21:31 Cloudy with Light Rain 34 1.1 30 -1.1 85 85 E 13 20 29.54 1000 4 6 0.04 1.02
9:53 pm 21:53 Cloudy with Light Rain 34 1.1 30 -1.1 85 85 E 10 17 29.53 1000 6 10 0.05 1.27
9:56 pm 21:56 Cloudy with Light Rain 34 1.1 30 -1.1 85 85 E 10 17 29.55 1001 5 8 0.00 0.03
10:45 pm 22:45 Cloudy with Light Snow 34 1.1 30 -1.1 85 85 E 14 22 29.54 1000 6 10 0.02 0.51
10:53 pm 22:53 Cloudy with Light Snow 34 1.1 30 -1.1 85 85 E 12 19 29.52 1000 6 10 0.02 0.51
11:53 pm 23:53 Cloudy with Mist and Fog 33 0.6 31 -0.6 92 92 E 9 15 29.50 999 4 6 0.00 0.03

Powered by AerisWeather